DECAYED

STARLINK-1978, 47576 (Decayed)

Orbit data source: Space-Track

STARLINK-1978, 47576 was a payload satellite owned by SpaceX/Seattle (US) in LEO that was launched on Thu, 04 Feb 2021 UTC via an FALCON 9 launch vehicle from the Air Force Eastern Test Range (AFETR). Payload-class satellites include a variety of spacecraft equipped with specific instruments for various scientific and technological missions. These include communications satellites like Starlink; space stations such as the ISS; scientific satellites like the Hubble; Earth observation satellites from companies like Planet Labs, Umbra, and HawkEye 360; GPS; miniature CubeSats for education and research; and military/defense satellites.

Not visible in the next 10 days
Identifier
47576, 2021-009AE
Orbit
Decayed
Country
Flag of USUS
Related business
Manufacturer
SpaceX/Seattle
Mission
Decayed Commercial Communications
Bus & Motor
STARLINK, Unknown motor
Mass
260 kg wet, ~248 kg dry
Launch date (UTC)
2021-02-04 (5 years ago)
Launch vehicle
FALCON 9
Launch site
Air Force Eastern Test Range (AFETR)
Object type
Payload
Rocket body
Debris
Shape & HBR
Box + 1 Pan, 10.1 m
Radar Cross Section
13.562 m², Large (>1 m²)

Expand to show TLE details & history
Last TLE update: 4 months ago

TLE from 4 months ago
0 STARLINK-1978
1 47576U 21009AE  26043.85503094  .12838894  12512-4  31767-3 0  9995
2 47576  53.0190  26.1186 0002826 246.7630 113.3121 16.46052165278554
Epoch: 2026-02-12T20:31Z
TLE epoch observation values (Epoch: 2026-02-12T20:31:14.673Z)
Latitude
-0.00003°
Longitude
-64.59337°
Altitude
151.411 km
Speed
7.816 km/s
True Right ascension
01h 44m 28s
True Declination
0° 00' 00"
Sunlit
Object was in daylight at epoch
Visualization orbit readout
Latitude
Unknown
Longitude
Unknown
Altitude
Unknown
Speed
Unknown
Apparent Right ascension
Unknown
Apparent Declination
Unknown
Sunlit
N/A
Visualization observer readout
Local Sidereal Time
21:35:40
Azimuth
Unknown
Elevation
Unknown
Doppler factor
Unknown
Orbital elements
Apogee altitude
151.89 km
Perigee altitude
148.2 km
Semi-major axis
6,528.182 km
Eccentricity
0.00028
Inclination
53.019°
RAAN
26.1186°
Arg. of periapsis
246.763°
True anomaly
113.34184°
Mean anomaly
113.3121°
Eccentric anomaly
113.32697°
Mean motion
4.11486 °/min
Orbital period
87.49 mins
BSTAR
0.00031767
Loading maneuver chart data...
Computing Atmospheric mass density...

Documentation

Showing up to 5 results
|